sat.trackr.live / text

‹ back to catalog

KOREASAT 5 (MUGUNGWHA 5)

NORAD 29349 · 2006-034A

PAYLOAD ACTIVE UNKNOWN

§ Identity

Operator
Country
SKOR
Launch date
2006-08-22
Launch site
SEAL
Launch vehicle
Mass (kg)
RCS (m²)
25.12

Purposes: comms

External: N2YO · Heavens-Above · Gunter

§ Orbital elements

Epoch: 2026-09-14T21:11:01.296960Z

Period
1,436.09 min
Inclination
2.0098°
Eccentricity
0.0001769
Mean motion
1.00272454 rev/d
Perigee alt
35,778.9 km
Apogee alt
35,793.9 km
Semi-major
42,164.5 km
B*
0.0000e+0
RAAN
81.7328°
Arg perigee
140.2339°
Mean anomaly
202.7130°
Rev number
4,221

§ Raw data

KOREASAT 5 (MUGUNGWHA 5)1 29349U 06034A   26257.88265390 -.00000365  00000+0  00000+0 0  99962 29349   2.0098  81.7328 0001769 140.2339 202.7130  1.00272454 42211

JSON: /api/v1/satellites/29349 · /tle

For live sub-satellite position, see the globe view (requires WebGL).

§ Visibility from observer

Set your observer location to see the next 7 days of passes ≥ 10°. The values pass through the URL so the page stays shareable.

No JS? Fill the form by hand. The geolocation button needs JavaScript.